Location: North Wawona
(37.5477°N, 119.6446°W)
Time: 09:16:55
(UTC+00:00)

Genesis I - Pass Details

Date: 03 August 2024
Orbit: 412 x 456 km, 64.5° (Epoch: 11 September)

Event Time Altitude Azimuth Distance (km) Brightness Sun altitude
Exits shadow 12:30:02 - 196° (SSW) 2,290 6.1 -7.1°
Reaches altitude 10° 12:31:57 10° 189° (S) 1,519 5.2 -6.7°
Maximum altitude 12:35:10 43° 116° (ESE) 619 3.9 -6.2°
Drops below altitude 10° 12:38:29 10° 44° (NE) 1,566 7.1 -5.6°
Sets 12:40:40 0° 38° (NE) 2,454 8.0 -5.2°
